Location: Balmont
(45.8318°N, 6.0577°E)
Time: 23:08:26
(UTC+00:00)

Daily predictions for brighter satellites

Satellite Brightness Start Highest point End
(mag) Time Altitude Azimuth Time Altitude Azimuth Time Altitude Azimuth
USA 267 3.4 17:29:46 10° ESE 17:36:17 72° NNE 17:42:49 10° NW
Cosmos 1805 3.2 17:37:08 10° S 17:40:58 62° E 17:44:49 10° NNE
Cosmos 1242 Rocket 2.5 17:38:40 10° S 17:42:13 89° ESE 17:45:46 10° N
ISS -3.2 17:43:50 10° WNW 17:47:10 57° SSW 17:50:29 10° SE
Cosmos 1697 Rocket 3.8 17:41:52 10° SW 17:47:15 47° WNW 17:52:42 10° NNE
Cosmos 2082 4.2 17:41:47 10° NNW 17:47:30 69° WSW 17:53:10 10° SSE
CZ-4 R/B 2.5 17:44:11 10° ESE 17:47:40 26° ENE 17:51:09 10° N
BREEZE M DEB (TANK) 4.2 17:42:19 10° SSW 17:49:54 28° SSE 17:53:03 11° E
Okean 2 4.0 17:46:05 10° NNW 17:50:13 62° W 17:54:17 10° S
Cosmos 1908 Rocket 4.3 17:48:55 10° SSE 17:52:41 30° E 17:56:29 10° NNE
MOS 1-B 4.4 17:47:56 10° SSE 17:53:39 62° ENE 17:59:23 10° N
SL-14 R/B 3.2 17:50:23 10° N 17:54:22 73° E 17:58:21 10° SSE
Cosmos 1733 3.3 17:50:44 10° S 17:54:29 81° WNW 17:58:13 10° N
Cosmos 2360 Rocket 3.7 17:52:04 10° SE 17:54:48 14° E 17:57:30 10° ENE
Cosmos 1809 Rocket 4.4 17:51:45 10° S 17:57:47 73° E 18:03:51 10° NNE
Cosmos 1766 3.4 17:57:03 10° S 18:00:49 49° E 18:04:38 10° NNE
Meteor 2-10 4.1 17:56:42 10° S 18:02:20 81° E 18:07:49 10° NNE
Cosmos 1674 Rocket 3.5 17:59:11 10° N 18:03:36 75° E 18:08:02 10° SSE
YAOGAN 1 2.6 18:01:36 10° SSE 18:05:49 55° ENE 18:10:04 10° N
Cosmos 1025 Rocket 4.4 18:02:58 10° NNE 18:06:05 19° ENE 18:07:56 15° E
Cosmos 968 Rocket 3.9 18:02:30 10° S 18:07:24 42° ESE 18:12:19 10° NE
Okean O Rocket 1.8 18:05:28 10° SE 18:09:40 50° ENE 18:13:56 10° N
IRIDIUM 106 4.3 18:06:15 10° SSE 18:11:22 62° E 18:16:32 10° N
Lacrosse 4 Rocket 2.6 18:09:10 10° SSE 18:12:13 21° ESE 18:13:56 16° ENE
SKYMED 2 4.4 18:10:12 10° N 18:14:27 56° WNW 18:18:42 10° SSW
Nadezhda 4 Rocket 4.0 18:08:26 10° S 18:14:41 67° E 18:20:56 10° NNE
Meteor 2-5 Rocket 4.0 18:10:39 10° N 18:15:56 43° ENE 18:21:10 10° SE
Meteor 1-15 Rocket 4.3 18:11:04 10° S 18:16:26 52° E 18:21:51 10° NNE
Cosmos 2285 Rocket 4.0 18:16:03 10° NNW 18:22:25 77° ENE 18:28:49 10° SSE
USA 186 3.2 18:22:41 22° ENE 18:22:49 22° ENE 18:25:29 10° NNE
Cosmos 1726 2.5 18:19:23 10° SSW 18:22:59 64° W 18:26:38 10° N
Cosmos 2322 Rocket 2.7 18:18:06 10° S 18:23:14 36° ESE 18:28:24 10° NE
Cosmos 1470 3.1 18:24:03 10° SSE 18:27:39 40° E 18:31:16 10° NNE
CZ-4B R/B 3.3 18:22:46 10° SSE 18:28:09 81° WSW 18:33:41 10° NNW
Cosmos 1980 Rocket 3.4 18:24:01 10° SW 18:29:22 44° NW 18:34:44 10° NNE
Cosmos 1378 Rocket 4.2 18:25:50 10° NNW 18:30:08 57° W 18:34:22 10° S
Cosmos 1975 Rocket 3.7 18:27:16 10° N 18:31:20 35° ENE 18:33:08 24° ESE
ARGOS Delta rocket 4.2 18:26:35 10° N 18:31:50 75° WNW 18:36:46 10° SSW
Cosmos 2292 Rocket 3.5 18:32:37 10° S 18:37:50 71° E 18:41:48 10° NNE
USA 215 3.9 18:37:49 10° NE 18:44:07 53° NNW 18:50:25 10° W
Cosmos 1844 Rocket 2.9 18:45:06 10° NNW 18:50:38 51° ENE 18:52:59 32° ESE
SL-16 R/B 2.1 18:47:43 10° SSW 18:53:23 85° ESE 18:59:06 10° NNE
Cosmos 1570 Rocket 4.2 18:50:41 10° NNW 18:55:55 71° WSW 19:00:58 11° S
Cosmos 1092 Rocket 3.9 18:49:53 10° S 18:56:11 78° E 19:02:27 10° N
Landsat 5 3.6 18:51:56 10° NNE 18:56:22 56° E 19:00:42 10° S
Resurs 01 Rocket 3.3 19:01:19 20° NE 19:01:19 20° NE 19:03:29 10° NNE
SJ-6B 2.6 19:02:07 64° E 19:02:14 64° ENE 19:06:00 10° N
Cosmos 2278 Rocket 4.1 19:02:26 10° N 19:05:15 14° NE 19:05:41 14° NE
Cosmos 1437 Rocket 3.7 19:01:47 10° SSW 19:05:24 46° WNW 19:09:02 10° N
H-2A R/B 4.1 19:07:12 19° NNE 19:07:12 19° NNE 19:08:43 10° N
Cosmos 2263 Rocket 4.2 19:04:44 10° NW 19:09:27 27° WSW 19:14:09 10° SSW
Meteor 1-24 Rocket 3.7 19:05:59 10° NNW 19:11:17 76° W 19:16:12 13° S
Resurs 1-3 3.6 19:11:26 56° ENE 19:11:26 56° ENE 19:15:39 10° N
SL-4 R/B 3.3 19:12:23 10° WNW 19:16:34 38° SW 19:17:52 31° S
USA 267 4.3 19:14:27 14° SSE 19:19:34 40° SW 19:25:40 10° WNW
Cosmos 2084 Rocket 3.3 19:15:59 10° NW 19:19:49 69° SW 19:19:51 69° SW
Okean-O 2.5 19:20:29 69° SSE 19:21:02 87° ENE 19:25:28 10° NNW
CZ-4 R/B 3.2 19:18:46 10° SSW 19:22:28 31° W 19:26:14 10° NNW
Cosmos 1486 Rocket 3.9 19:17:29 10° SSW 19:22:46 75° ESE 19:28:07 10° NNE
OBJECT-B 3.3 19:24:56 14° NW 19:24:56 14° NW 19:25:28 10° NNW
IGS 5A 3.5 19:24:37 70° SSW 19:24:57 76° W 19:29:06 10° NNW
Cosmos 1844 3.5 19:19:37 10° NNW 19:25:12 78° ENE 19:26:13 60° SE
DNEPR-1 R/B 3.8 19:22:25 10° SW 19:27:05 86° NW 19:30:36 23° NE
Cosmos 2333 Rocket 4.4 19:24:11 10° S 19:36:34 - NNE 19:24:21 11° S
Cosmos 1300 Rocket 3.5 19:30:14 79° NW 19:30:14 79° NW 19:34:30 10° N
S3M 4.2 19:24:28 10° N 19:30:10 47° ENE 19:30:10 47° ENE
CSL-04 Debris 4.4 19:28:02 25° S 19:31:10 66° WSW 19:36:34 10° NNW
Cosmos 2360 Rocket 2.1 19:32:16 10° SSW 19:37:55 89° ESE 19:43:37 10° NNE
Cosmos 1025 Rocket 4.1 19:39:48 10° NNW 19:43:53 42° W 19:44:50 36° SW
Okean O Rocket 4.3 19:43:25 10° SW 19:46:18 17° W 19:49:13 10° NW
Lacrosse 4 Rocket 2.5 19:46:38 10° SW 19:50:17 41° WNW 19:50:17 41° WNW
Cosmos 1417 Rocket 4.3 19:44:48 10° N 19:50:58 80° E 19:51:03 80° E
USA 186 4.5 19:55:51 20° WNW 19:55:51 20° WNW 19:57:44 10° NW
ATLAS 2AS CENTAUR R/B 4.2 19:54:32 10° NNW 20:00:14 24° NNE 20:01:35 23° NE
MOS 1 4.4 20:01:33 66° N 20:01:33 66° N 20:06:25 10° NNW
Cosmos 1553 Rocket 4.4 19:58:26 10° NNW 20:04:42 63° W 20:06:33 45° SSW
SPOT 1/Viking Rocket 4.3 20:07:54 47° NNW 20:07:54 47° NNW 20:11:32 10° NNW
Cosmos 2322 Rocket 3.4 20:01:54 10° SW 20:07:14 40° NW 20:12:36 10° NNE
NOSS 3-4 (A) 4.0 20:05:31 10° NW 20:12:04 60° NE 20:12:04 60° NE
NOSS 3-4 (C) 4.0 20:05:38 10° NW 20:12:10 59° NE 20:12:10 59° NE
Ariane Rocket 4.5 20:16:26 30° N 20:16:26 30° N 20:19:00 10° N
NOSS 3-3 (A) 4.3 20:15:29 10° SW 20:30:26 - NE 20:20:03 55° W
NOSS 3-3 (C) 4.4 20:15:35 10° SW 20:30:32 - NE 20:19:58 53° W
Aureole 1 Rocket 4.4 20:17:38 10° SSW 20:24:59 64° WNW 20:30:48 10° NNE
USA 281 4.2 20:27:40 35° NNE 20:27:40 35° NNE 20:32:07 10° NNW
USA 215 4.5 20:24:15 28° NNE 20:26:21 34° N 20:32:04 10° WNW
Cosmos 1844 Rocket 4.3 20:29:33 10° NW 20:34:13 27° WSW 20:34:40 26° WSW
Resurs 01 Rocket 4.0 20:38:53 20° NW 20:38:53 20° NW 20:40:29 10° NNW
Cosmos 1943 Rocket 4.4 20:37:31 10° N 20:38:59 15° N 20:38:59 15° N
Cosmos 2278 Rocket 3.9 20:44:57 10° NNW 20:47:32 27° N 20:47:32 27° N
ATLAS 2AS CENTAUR R/B 4.3 21:45:37 10° NW 21:49:00 29° NNW 21:49:00 29° NNW
